Back to catalog

STARLINK-5977

AliveCommunicationsVLEO
NORAD 56791·PAYLOAD·🇺🇸 United States

Launched May 31, 2023 from Vandenberg Space Force Base

Loading…

Next Passes (next 24 hours)

TLE

FreshSource: CelesTrak SupGP

Epoch: Sep 14, 2026, 13:44 UTC

1 56791C 23078AA  26257.57270833 -.00053958  00000+0 -45228-2 0  2576
2 56791  70.0007 228.1134 0003239 271.1511 159.0208 14.98349647    11

Track STARLINK-5977 in real time with AllMySat

Download on the App Store